| time (UTC) | temp F | wind direction | speed MPH | gust MPH | rain 1hr in | rain 24hr in | rain mn in | humidity % | barometer mb |
| 20260508004046 | 49 | 338 | 0.0 | 0.0 | 0.00 | 0.17 | 0.01 | 60 | 992.7 |
| 20260508002528 | 51 | 338 | 0.0 | 0.0 | 0.00 | 0.18 | 0.01 | 57 | 992.4 |
| 20260508002021 | 51 | 338 | 0.0 | 1.0 | 0.00 | 0.18 | 0.01 | 60 | 992.4 |
| 20260508001515 | 52 | 338 | 0.0 | 1.0 | 0.00 | 0.18 | 0.01 | 56 | 992.2 |
| 20260508001009 | 52 | 338 | 0.0 | 1.0 | 0.00 | 0.18 | 0.01 | 54 | 992.2 |
| 20260508000504 | 53 | 338 | 0.0 | 1.0 | 0.00 | 0.18 | 0.01 | 55 | 992.2 |
| 20260507235957 | 53 | 338 | 0.0 | 1.0 | 0.00 | 0.18 | 0.01 | 55 | 992.1 |
| 20260507235452 | 53 | 338 | 0.0 | 3.0 | 0.00 | 0.18 | 0.01 | 48 | 992.1 |
| 20260507234439 | 54 | 338 | 1.0 | 3.0 | 0.00 | 0.18 | 0.01 | 48 | 992.1 |
| 20260507233935 | 54 | 338 | 0.0 | 3.0 | 0.00 | 0.18 | 0.01 | 47 | 992.0 |
| 20260507233428 | 54 | 5 | 0.0 | 2.0 | 0.00 | 0.18 | 0.01 | 48 | 992.0 |
| 20260507232922 | 55 | 5 | 0.0 | 2.0 | 0.00 | 0.18 | 0.01 | 52 | 992.0 |
| 20260507232416 | 55 | 5 | 0.0 | 2.0 | 0.00 | 0.18 | 0.01 | 50 | 991.9 |
| 20260507231404 | 55 | 44 | 1.0 | 3.0 | 0.00 | 0.18 | 0.01 | 44 | 991.9 |
| 20260507225846 | 56 | 295 | 1.0 | 3.0 | 0.00 | 0.18 | 0.01 | 44 | 991.9 |
| 20260507225340 | 56 | 295 | 1.0 | 3.0 | 0.00 | 0.18 | 0.01 | 45 | 991.8 |
| 20260507224834 | 56 | 295 | 1.0 | 3.0 | 0.00 | 0.18 | 0.01 | 42 | 991.7 |
| 20260507224328 | 56 | 304 | 1.0 | 3.0 | 0.00 | 0.18 | 0.01 | 41 | 991.7 |
| 20260507223315 | 57 | 308 | 1.0 | 3.0 | 0.00 | 0.18 | 0.01 | 43 | 991.6 |
| 20260507222810 | 57 | 301 | 2.0 | 4.0 | 0.00 | 0.18 | 0.01 | 39 | 991.6 |
| 20260507222306 | 58 | 302 | 2.0 | 4.0 | 0.00 | 0.18 | 0.01 | 38 | 991.6 |
| 20260507221758 | 58 | 302 | 2.0 | 4.0 | 0.00 | 0.18 | 0.01 | 38 | 991.5 |
| 20260507221252 | 58 | 304 | 2.0 | 4.0 | 0.00 | 0.18 | 0.01 | 38 | 991.5 |
| 20260507220745 | 58 | 296 | 2.0 | 4.0 | 0.00 | 0.18 | 0.01 | 37 | 991.3 |
| 20260507215734 | 58 | 55 | 1.0 | 4.0 | 0.00 | 0.18 | 0.01 | 39 | 991.4 |
| 20260507215227 | 58 | 28 | 1.0 | 3.0 | 0.00 | 0.18 | 0.01 | 41 | 991.5 |
| 20260507214722 | 58 | 350 | 2.0 | 4.0 | 0.00 | 0.18 | 0.01 | 40 | 991.4 |
| 20260507214216 | 58 | 126 | 1.0 | 4.0 | 0.00 | 0.18 | 0.01 | 38 | 991.5 |
| 20260507213710 | 59 | 306 | 2.0 | 4.0 | 0.00 | 0.18 | 0.01 | 39 | 991.4 |
| 20260507213204 | 58 | 306 | 2.0 | 4.0 | 0.00 | 0.18 | 0.01 | 38 | 991.4 |
| 20260507212658 | 58 | 333 | 1.0 | 3.0 | 0.00 | 0.18 | 0.01 | 38 | 991.2 |
| 20260507212152 | 59 | 313 | 2.0 | 4.0 | 0.00 | 0.18 | 0.01 | 40 | 991.3 |
| 20260507211645 | 59 | 313 | 2.0 | 4.0 | 0.00 | 0.18 | 0.01 | 38 | 991.4 |
| 20260507211144 | 59 | 308 | 2.0 | 4.0 | 0.00 | 0.18 | 0.01 | 39 | 991.4 |
| 20260507210641 | 59 | 301 | 2.0 | 4.0 | 0.00 | 0.18 | 0.01 | 38 | 991.3 |
| 20260507210141 | 60 | 294 | 2.0 | 5.0 | 0.00 | 0.18 | 0.01 | 38 | 991.3 |
| 20260507205642 | 59 | 236 | 2.0 | 5.0 | 0.00 | 0.18 | 0.01 | 38 | 991.3 |
| 20260507205142 | 59 | 316 | 2.0 | 5.0 | 0.00 | 0.18 | 0.01 | 38 | 991.3 |
| 20260507204642 | 59 | 319 | 1.0 | 5.0 | 0.00 | 0.18 | 0.01 | 39 | 991.3 |
| 20260507204141 | 60 | 93 | 1.0 | 4.0 | 0.00 | 0.18 | 0.01 | 39 | 991.3 |
| 20260507203642 | 59 | 315 | 1.0 | 4.0 | 0.00 | 0.18 | 0.01 | 39 | 991.3 |
| 20260507203141 | 59 | 304 | 2.0 | 4.0 | 0.00 | 0.18 | 0.01 | 38 | 991.2 |
| 20260507202638 | 59 | 322 | 2.0 | 4.0 | 0.00 | 0.18 | 0.01 | 37 | 991.4 |
| 20260507202138 | 59 | 301 | 2.0 | 5.0 | 0.00 | 0.18 | 0.01 | 39 | 991.4 |
| 20260507201638 | 59 | 297 | 2.0 | 5.0 | 0.00 | 0.19 | 0.01 | 37 | 991.3 |
| 20260507200639 | 59 | 302 | 2.0 | 5.0 | 0.00 | 0.19 | 0.01 | 39 | 991.4 |
| 20260507200137 | 59 | 297 | 2.0 | 5.0 | 0.00 | 0.20 | 0.01 | 37 | 991.3 |
| 20260507195638 | 60 | 317 | 2.0 | 4.0 | 0.00 | 0.20 | 0.01 | 37 | 991.4 |
| 20260507195134 | 60 | 0 | 2.0 | 4.0 | 0.00 | 0.21 | 0.01 | 37 | 991.3 |
| 20260507194635 | 60 | 340 | 2.0 | 5.0 | 0.00 | 0.21 | 0.01 | 39 | 991.4 |
| 20260507194134 | 60 | 298 | 2.0 | 5.0 | 0.00 | 0.22 | 0.01 | 37 | 991.4 |
| 20260507193634 | 60 | 302 | 2.0 | 5.0 | 0.00 | 0.23 | 0.01 | 39 | 991.3 |
| 20260507193133 | 59 | 355 | 2.0 | 4.0 | 0.00 | 0.24 | 0.01 | 38 | 991.4 |
| 20260507192635 | 59 | 316 | 2.0 | 5.0 | 0.00 | 0.24 | 0.01 | 38 | 991.6 |
| 20260507191135 | 59 | 319 | 2.0 | 4.0 | 0.00 | 0.25 | 0.01 | 42 | 991.6 |
| 20260507190633 | 59 | 332 | 1.0 | 4.0 | 0.00 | 0.25 | 0.01 | 39 | 991.6 |
| 20260507190134 | 59 | 331 | 2.0 | 4.0 | 0.00 | 0.25 | 0.01 | 40 | 991.7 |
| 20260507185633 | 60 | 306 | 2.0 | 4.0 | 0.00 | 0.25 | 0.01 | 39 | 991.8 |
| 20260507185133 | 59 | 321 | 2.0 | 4.0 | 0.00 | 0.25 | 0.01 | 44 | 991.8 |
| 20260507184135 | 58 | 10 | 2.0 | 6.0 | 0.00 | 0.26 | 0.01 | 44 | 992.0 |
| 20260507183632 | 58 | 296 | 2.0 | 6.0 | 0.00 | 0.26 | 0.01 | 42 | 992.1 |
| 20260507183132 | 59 | 311 | 2.0 | 4.0 | 0.00 | 0.27 | 0.01 | 44 | 992.1 |
| 20260507182632 | 59 | 303 | 1.0 | 4.0 | 0.00 | 0.27 | 0.01 | 43 | 991.9 |
| 20260507182125 | 59 | 297 | 2.0 | 5.0 | 0.00 | 0.27 | 0.01 | 43 | 992.0 |
| 20260507181619 | 60 | 333 | 2.0 | 5.0 | 0.00 | 0.28 | 0.01 | 46 | 992.0 |
| 20260507181114 | 60 | 337 | 2.0 | 4.0 | 0.00 | 0.28 | 0.01 | 43 | 992.0 |
| 20260507175555 | 60 | 329 | 2.0 | 4.0 | 0.00 | 0.29 | 0.01 | 46 | 992.1 |
| 20260507175049 | 59 | 335 | 2.0 | 4.0 | 0.00 | 0.29 | 0.01 | 44 | 992.1 |
| 20260507174544 | 59 | 304 | 2.0 | 4.0 | 0.00 | 0.30 | 0.01 | 42 | 992.1 |
| 20260507174038 | 59 | 49 | 2.0 | 5.0 | 0.00 | 0.30 | 0.01 | 47 | 992.1 |
| 20260507173531 | 59 | 94 | 2.0 | 5.0 | 0.00 | 0.31 | 0.01 | 44 | 992.1 |
| 20260507173025 | 59 | 310 | 2.0 | 10.0 | 0.00 | 0.31 | 0.01 | 43 | 992.1 |
| 20260507172519 | 59 | 337 | 2.0 | 10.0 | 0.00 | 0.32 | 0.01 | 49 | 992.0 |
| 20260507172013 | 58 | 333 | 1.0 | 5.0 | 0.00 | 0.32 | 0.01 | 45 | 992.2 |
| 20260507171508 | 58 | 0 | 2.0 | 5.0 | 0.00 | 0.32 | 0.01 | 45 | 992.3 |
| 20260507170456 | 57 | 288 | 1.0 | 4.0 | 0.00 | 0.32 | 0.01 | 49 | 992.5 |
| 20260507165950 | 57 | 311 | 1.0 | 4.0 | 0.00 | 0.32 | 0.01 | 45 | 992.6 |
| 20260507165443 | 58 | 330 | 0.0 | 2.0 | 0.00 | 0.32 | 0.01 | 47 | 992.7 |
| 20260507164937 | 58 | 254 | 1.0 | 7.0 | 0.00 | 0.32 | 0.01 | 46 | 992.8 |
| 20260507164432 | 59 | 340 | 2.0 | 7.0 | 0.00 | 0.32 | 0.01 | 44 | 992.8 |
| 20260507163927 | 59 | 125 | 2.0 | 7.0 | 0.00 | 0.32 | 0.01 | 47 | 992.9 |
| 20260507163420 | 59 | 309 | 2.0 | 6.0 | 0.00 | 0.32 | 0.01 | 47 | 992.8 |
| 20260507162913 | 58 | 310 | 2.0 | 4.0 | 0.00 | 0.32 | 0.01 | 49 | 992.8 |
| 20260507161901 | 58 | 315 | 2.0 | 5.0 | 0.00 | 0.32 | 0.01 | 51 | 993.1 |
| 20260507161355 | 58 | 121 | 2.0 | 5.0 | 0.00 | 0.32 | 0.01 | 48 | 993.0 |
| 20260507160850 | 58 | 303 | 2.0 | 6.0 | 0.00 | 0.32 | 0.01 | 47 | 993.0 |
| 20260507160344 | 58 | 113 | 2.0 | 6.0 | 0.00 | 0.32 | 0.01 | 46 | 993.1 |
| 20260507155332 | 57 | 165 | 2.0 | 5.0 | 0.00 | 0.32 | 0.01 | 54 | 993.2 |
| 20260507154826 | 57 | 314 | 2.0 | 5.0 | 0.00 | 0.32 | 0.01 | 53 | 993.2 |
| 20260507154320 | 57 | 315 | 2.0 | 5.0 | 0.00 | 0.32 | 0.01 | 51 | 993.3 |
| 20260507153814 | 57 | 347 | 2.0 | 5.0 | 0.00 | 0.32 | 0.01 | 55 | 993.1 |
| 20260507152256 | 56 | 319 | 2.0 | 4.0 | 0.00 | 0.32 | 0.01 | 57 | 993.4 |
| 20260507151750 | 56 | 313 | 2.0 | 4.0 | 0.00 | 0.32 | 0.01 | 56 | 993.5 |
| 20260507151244 | 56 | 325 | 2.0 | 4.0 | 0.00 | 0.32 | 0.01 | 62 | 993.5 |
| 20260507150231 | 55 | 259 | 2.0 | 5.0 | 0.00 | 0.32 | 0.01 | 61 | 993.4 |
| 20260507145219 | 54 | 304 | 2.0 | 5.0 | 0.00 | 0.32 | 0.01 | 66 | 993.4 |
| 20260507144714 | 54 | 307 | 2.0 | 5.0 | 0.00 | 0.32 | 0.01 | 73 | 993.4 |
| 20260507143701 | 53 | 304 | 2.0 | 5.0 | 0.01 | 0.32 | 0.01 | 69 | 993.3 |
| 20260507143155 | 52 | 310 | 1.0 | 4.0 | 0.01 | 0.32 | 0.01 | 71 | 993.2 |
| 20260507142650 | 52 | 342 | 0.0 | 0.0 | 0.01 | 0.32 | 0.01 | 75 | 993.2 |
| 20260507142144 | 52 | 342 | 0.0 | 0.0 | 0.01 | 0.32 | 0.01 | 75 | 993.3 |
| 20260507141637 | 52 | 355 | 0.0 | 0.0 | 0.01 | 0.32 | 0.01 | 77 | 993.2 |
| 20260507141131 | 52 | 331 | 0.0 | 0.0 | 0.01 | 0.32 | 0.01 | 78 | 993.3 |
| 20260507140626 | 52 | 326 | 0.0 | 0.0 | 0.01 | 0.32 | 0.01 | 79 | 993.3 |
| 20260507140120 | 51 | 326 | 0.0 | 0.0 | 0.01 | 0.32 | 0.01 | 77 | 993.2 |
| 20260507135614 | 51 | 57 | 0.0 | 0.0 | 0.01 | 0.32 | 0.01 | 82 | 993.2 |
| 20260507135108 | 51 | 57 | 0.0 | 2.0 | 0.01 | 0.32 | 0.01 | 82 | 993.2 |
| 20260507134601 | 51 | 9 | 1.0 | 3.0 | 0.01 | 0.32 | 0.01 | 81 | 993.3 |
| 20260507134101 | 51 | 9 | 1.0 | 4.0 | 0.01 | 0.32 | 0.01 | 81 | 993.3 |
| 20260507133101 | 51 | 52 | 0.0 | 0.0 | 0.00 | 0.31 | 0.00 | 82 | 993.4 |
| 20260507132600 | 50 | 320 | 0.0 | 1.0 | 0.00 | 0.31 | 0.00 | 83 | 993.6 |
| 20260507132058 | 50 | 317 | 0.0 | 1.0 | 0.00 | 0.31 | 0.00 | 84 | 993.6 |
| 20260507131557 | 49 | 316 | 0.0 | 0.0 | 0.00 | 0.31 | 0.00 | 84 | 993.7 |
| 20260507131058 | 49 | 316 | 0.0 | 2.0 | 0.00 | 0.31 | 0.00 | 85 | 993.7 |
| 20260507130555 | 49 | 342 | 1.0 | 3.0 | 0.00 | 0.31 | 0.00 | 87 | 993.7 |
| 20260507130053 | 48 | 342 | 0.0 | 3.0 | 0.00 | 0.31 | 0.00 | 89 | 993.8 |
| 20260507125552 | 48 | 355 | 0.0 | 2.0 | 0.00 | 0.31 | 0.00 | 90 | 993.8 |
| 20260507125052 | 48 | 355 | 0.0 | 2.0 | 0.00 | 0.31 | 0.00 | 91 | 993.8 |
| 20260507124551 | 47 | 355 | 0.0 | 0.0 | 0.00 | 0.31 | 0.00 | 91 | 993.7 |
| 20260507124048 | 47 | 355 | 0.0 | 1.0 | 0.00 | 0.31 | 0.00 | 91 | 993.6 |
| 20260507123547 | 47 | 355 | 0.0 | 2.0 | 0.00 | 0.31 | 0.00 | 92 | 993.5 |
| 20260507123044 | 47 | 355 | 0.0 | 3.0 | 0.00 | 0.31 | 0.00 | 93 | 993.5 |
| 20260507121541 | 46 | 115 | 0.0 | 0.0 | 0.00 | 0.31 | 0.00 | 93 | 993.5 |
| 20260507121041 | 46 | 115 | 0.0 | 0.0 | 0.00 | 0.31 | 0.00 | 93 | 993.5 |
| 20260507120542 | 45 | 115 | 0.0 | 0.0 | 0.00 | 0.31 | 0.00 | 93 | 993.6 |
| 20260507120040 | 45 | 115 | 0.0 | 0.0 | 0.00 | 0.31 | 0.00 | 93 | 993.7 |
| 20260507115541 | 45 | 115 | 0.0 | 0.0 | 0.00 | 0.31 | 0.00 | 93 | 993.8 |
| 20260507115042 | 45 | 115 | 0.0 | 0.0 | 0.00 | 0.31 | 0.00 | 93 | 993.8 |
| 20260507114541 | 45 | 115 | 0.0 | 0.0 | 0.00 | 0.31 | 0.00 | 93 | 993.7 |
| 20260507114042 | 44 | 115 | 0.0 | 0.0 | 0.00 | 0.31 | 0.00 | 93 | 993.7 |
| 20260507113040 | 44 | 115 | 0.0 | 0.0 | 0.00 | 0.31 | 0.00 | 93 | 993.7 |
| 20260507112541 | 44 | 115 | 0.0 | 0.0 | 0.00 | 0.31 | 0.00 | 93 | 993.7 |
| 20260507112041 | 44 | 115 | 0.0 | 0.0 | 0.00 | 0.31 | 0.00 | 93 | 993.6 |
| 20260507111040 | 43 | 115 | 0.0 | 0.0 | 0.00 | 0.31 | 0.00 | 93 | 993.8 |
| 20260507110541 | 43 | 115 | 0.0 | 0.0 | 0.00 | 0.31 | 0.00 | 93 | 993.7 |
| 20260507110041 | 43 | 115 | 0.0 | 0.0 | 0.00 | 0.31 | 0.00 | 93 | 993.5 |
| 20260507105542 | 43 | 115 | 0.0 | 0.0 | 0.00 | 0.31 | 0.00 | 92 | 993.5 |
| 20260507105042 | 43 | 115 | 0.0 | 0.0 | 0.00 | 0.31 | 0.00 | 92 | 993.3 |
| 20260507103524 | 43 | 115 | 0.0 | 0.0 | 0.00 | 0.31 | 0.00 | 92 | 993.1 |
| 20260507103018 | 43 | 115 | 0.0 | 0.0 | 0.00 | 0.31 | 0.00 | 92 | 993.2 |
| 20260507102512 | 43 | 115 | 0.0 | 0.0 | 0.00 | 0.31 | 0.00 | 92 | 993.2 |
| 20260507102007 | 43 | 115 | 0.0 | 0.0 | 0.00 | 0.31 | 0.00 | 92 | 993.3 |
| 20260507101500 | 43 | 115 | 0.0 | 0.0 | 0.00 | 0.31 | 0.00 | 92 | 993.3 |
| 20260507100954 | 43 | 115 | 0.0 | 0.0 | 0.00 | 0.31 | 0.00 | 92 | 993.1 |
| 20260507100448 | 44 | 115 | 0.0 | 0.0 | 0.00 | 0.31 | 0.00 | 92 | 993.2 |
| 20260507095942 | 44 | 115 | 0.0 | 0.0 | 0.00 | 0.31 | 0.00 | 92 | 993.4 |
| 20260507095436 | 44 | 115 | 0.0 | 0.0 | 0.00 | 0.31 | 0.00 | 92 | 993.4 |
| 20260507094930 | 44 | 115 | 0.0 | 0.0 | 0.00 | 0.31 | 0.00 | 92 | 993.2 |
| 20260507094424 | 44 | 115 | 0.0 | 0.0 | 0.00 | 0.31 | 0.00 | 92 | 993.1 |
| 20260507093918 | 44 | 115 | 0.0 | 0.0 | 0.00 | 0.31 | 0.00 | 92 | 993.3 |
| 20260507093412 | 44 | 115 | 0.0 | 0.0 | 0.00 | 0.31 | 0.00 | 92 | 993.3 |
| 20260507092400 | 45 | 115 | 0.0 | 0.0 | 0.00 | 0.31 | 0.00 | 92 | 993.3 |
| 20260507091854 | 45 | 115 | 0.0 | 0.0 | 0.00 | 0.31 | 0.00 | 92 | 993.5 |
| 20260507091348 | 45 | 115 | 0.0 | 0.0 | 0.00 | 0.31 | 0.00 | 92 | 993.6 |
| 20260507090841 | 45 | 115 | 0.0 | 0.0 | 0.00 | 0.31 | 0.00 | 92 | 993.8 |
| 20260507090336 | 45 | 115 | 0.0 | 0.0 | 0.00 | 0.31 | 0.00 | 92 | 993.8 |
| 20260507085829 | 45 | 115 | 0.0 | 0.0 | 0.00 | 0.31 | 0.00 | 92 | 993.7 |
| 20260507085323 | 45 | 115 | 0.0 | 1.0 | 0.00 | 0.31 | 0.00 | 92 | 993.5 |
| 20260507084312 | 45 | 115 | 0.0 | 1.0 | 0.00 | 0.31 | 0.00 | 92 | 993.2 |
| 20260507083805 | 45 | 115 | 0.0 | 1.0 | 0.00 | 0.31 | 0.00 | 92 | 993.1 |
| 20260507083300 | 45 | 115 | 0.0 | 1.0 | 0.00 | 0.31 | 0.00 | 92 | 993.0 |
| 20260507082753 | 45 | 115 | 0.0 | 1.0 | 0.00 | 0.31 | 0.00 | 92 | 993.1 |
| 20260507082248 | 45 | 107 | 0.0 | 0.0 | 0.00 | 0.31 | 0.00 | 92 | 993.1 |
| 20260507081236 | 46 | 107 | 0.0 | 0.0 | 0.00 | 0.31 | 0.00 | 92 | 993.2 |
| 20260507080730 | 46 | 107 | 0.0 | 0.0 | 0.00 | 0.31 | 0.00 | 92 | 993.1 |
| 20260507080224 | 46 | 107 | 0.0 | 0.0 | 0.00 | 0.31 | 0.00 | 92 | 992.7 |
| 20260507075718 | 46 | 107 | 0.0 | 0.0 | 0.00 | 0.31 | 0.00 | 92 | 993.0 |
| 20260507075212 | 46 | 107 | 0.0 | 0.0 | 0.00 | 0.31 | 0.00 | 92 | 993.1 |
| 20260507074705 | 46 | 107 | 0.0 | 0.0 | 0.00 | 0.31 | 0.00 | 92 | 993.1 |
| 20260507074200 | 46 | 107 | 0.0 | 0.0 | 0.00 | 0.31 | 0.00 | 92 | 993.2 |
| 20260507073654 | 46 | 107 | 0.0 | 0.0 | 0.00 | 0.31 | 0.00 | 92 | 993.1 |
| 20260507073148 | 46 | 107 | 0.0 | 0.0 | 0.00 | 0.31 | 0.00 | 92 | 992.9 |
| 20260507072642 | 46 | 107 | 0.0 | 0.0 | 0.00 | 0.31 | 0.00 | 92 | 992.7 |
| 20260507072136 | 46 | 107 | 0.0 | 0.0 | 0.00 | 0.31 | 0.00 | 92 | 992.8 |
| 20260507071630 | 46 | 107 | 0.0 | 0.0 | 0.00 | 0.31 | 0.00 | 92 | 992.6 |
| 20260507071124 | 46 | 107 | 0.0 | 0.0 | 0.00 | 0.31 | 0.00 | 91 | 992.9 |
| 20260507070112 | 46 | 107 | 0.0 | 0.0 | 0.00 | 0.31 | 0.00 | 92 | 992.4 |
| 20260507064554 | 46 | 107 | 0.0 | 0.0 | 0.00 | 0.31 | 0.00 | 92 | 992.7 |
| 20260507064048 | 47 | 107 | 0.0 | 0.0 | 0.00 | 0.31 | 0.00 | 91 | 992.3 |
| 20260507063036 | 47 | 107 | 0.0 | 0.0 | 0.00 | 0.31 | 0.00 | 91 | 992.9 |
| 20260507062530 | 47 | 107 | 0.0 | 0.0 | 0.00 | 0.31 | 0.00 | 92 | 992.7 |
| 20260507061517 | 47 | 107 | 0.0 | 0.0 | 0.00 | 0.31 | 0.00 | 92 | 992.8 |
| 20260507061011 | 47 | 107 | 0.0 | 0.0 | 0.00 | 0.31 | 0.00 | 92 | 992.8 |
| 20260507060506 | 47 | 107 | 0.0 | 0.0 | 0.00 | 0.31 | 0.00 | 92 | 992.9 |
| 20260507060005 | 47 | 107 | 0.0 | 0.0 | 0.00 | 0.31 | 0.00 | 92 | 992.6 |
| 20260507055506 | 47 | 107 | 0.0 | 0.0 | 0.00 | 0.31 | 0.00 | 92 | 992.7 |
| 20260507055005 | 47 | 107 | 0.0 | 0.0 | 0.00 | 0.31 | 0.00 | 92 | 992.9 |
| 20260507054502 | 47 | 107 | 0.0 | 0.0 | 0.00 | 0.31 | 0.00 | 92 | 992.9 |
| 20260507054002 | 47 | 107 | 0.0 | 0.0 | 0.00 | 0.31 | 0.00 | 91 | 992.9 |
| 20260507053001 | 47 | 107 | 0.0 | 0.0 | 0.00 | 0.31 | 0.00 | 91 | 993.0 |
| 20260507052457 | 47 | 107 | 0.0 | 0.0 | 0.00 | 0.31 | 0.00 | 91 | 992.8 |
| 20260507051956 | 47 | 107 | 0.0 | 0.0 | 0.00 | 0.31 | 0.00 | 91 | 992.9 |
| 20260507051456 | 47 | 107 | 0.0 | 0.0 | 0.00 | 0.31 | 0.00 | 91 | 992.7 |
| 20260507050455 | 48 | 107 | 0.0 | 0.0 | 0.00 | 0.31 | 0.00 | 92 | 992.5 |
| 20260507045953 | 47 | 107 | 0.0 | 0.0 | 0.00 | 0.31 | 0.00 | 91 | 992.6 |
| 20260507045455 | 48 | 107 | 0.0 | 0.0 | 0.00 | 0.31 | 0.00 | 91 | 992.4 |
| 20260507044953 | 48 | 107 | 0.0 | 0.0 | 0.00 | 0.31 | 0.00 | 91 | 992.6 |
| 20260507043953 | 48 | 107 | 0.0 | 0.0 | 0.00 | 0.31 | 0.00 | 91 | 992.7 |
| 20260507043455 | 48 | 107 | 0.0 | 0.0 | 0.00 | 0.31 | 0.00 | 91 | 992.6 |
| 20260507042454 | 48 | 107 | 0.0 | 0.0 | 0.00 | 0.31 | 0.00 | 91 | 992.5 |
| 20260507041953 | 48 | 107 | 0.0 | 0.0 | 0.00 | 0.31 | 0.00 | 91 | 992.8 |
| 20260507041453 | 48 | 107 | 0.0 | 0.0 | 0.00 | 0.31 | 0.00 | 90 | 993.1 |
| 20260507040953 | 49 | 147 | 0.0 | 0.0 | 0.00 | 0.31 | 0.00 | 91 | 992.8 |
| 20260507040453 | 49 | 147 | 0.0 | 0.0 | 0.00 | 0.31 | 0.00 | 90 | 992.8 |
| 20260507035953 | 49 | 147 | 0.0 | 0.0 | 0.00 | 0.31 | 0.31 | 91 | 992.8 |
| 20260507035448 | 49 | 147 | 0.0 | 3.0 | 0.00 | 0.31 | 0.31 | 91 | 992.7 |
| 20260507034943 | 49 | 147 | 1.0 | 3.0 | 0.02 | 0.31 | 0.31 | 91 | 992.7 |
| 20260507034443 | 50 | 146 | 0.0 | 2.0 | 0.03 | 0.31 | 0.31 | 91 | 992.6 |
| 20260507033944 | 50 | 133 | 0.0 | 1.0 | 0.03 | 0.31 | 0.31 | 91 | 992.5 |
| 20260507033440 | 50 | 133 | 0.0 | 1.0 | 0.03 | 0.31 | 0.31 | 91 | 992.5 |
| 20260507032941 | 50 | 133 | 0.0 | 1.0 | 0.03 | 0.31 | 0.31 | 91 | 992.5 |
| 20260507032441 | 50 | 133 | 0.0 | 0.0 | 0.04 | 0.31 | 0.31 | 91 | 992.4 |
| 20260507031938 | 51 | 133 | 0.0 | 1.0 | 0.04 | 0.31 | 0.31 | 91 | 992.5 |
| 20260507031438 | 51 | 133 | 0.0 | 1.0 | 0.04 | 0.31 | 0.31 | 91 | 992.4 |
| 20260507030936 | 51 | 133 | 0.0 | 0.0 | 0.04 | 0.31 | 0.31 | 91 | 992.4 |
| 20260507030434 | 51 | 133 | 0.0 | 0.0 | 0.04 | 0.31 | 0.31 | 91 | 992.5 |
| 20260507025934 | 51 | 133 | 0.0 | 2.0 | 0.04 | 0.31 | 0.31 | 91 | 992.5 |
| 20260507025434 | 51 | 133 | 0.0 | 2.0 | 0.03 | 0.30 | 0.31 | 91 | 992.6 |
| 20260507024934 | 51 | 133 | 0.0 | 2.0 | 0.02 | 0.29 | 0.29 | 91 | 992.6 |
| 20260507024434 | 51 | 133 | 0.0 | 1.0 | 0.02 | 0.28 | 0.28 | 91 | 992.5 |
| 20260507023935 | 51 | 133 | 0.0 | 4.0 | 0.02 | 0.28 | 0.28 | 90 | 992.5 |
| 20260507023431 | 51 | 133 | 0.0 | 4.0 | 0.02 | 0.28 | 0.28 | 90 | 992.6 |
| 20260507022930 | 52 | 56 | 1.0 | 3.0 | 0.03 | 0.28 | 0.28 | 90 | 992.5 |
| 20260507021929 | 53 | 5 | 1.0 | 5.0 | 0.03 | 0.27 | 0.27 | 89 | 992.4 |
| 20260507021430 | 53 | 107 | 1.0 | 4.0 | 0.03 | 0.27 | 0.27 | 90 | 992.3 |
| 20260507020930 | 54 | 27 | 1.0 | 3.0 | 0.03 | 0.27 | 0.27 | 90 | 992.0 |
| 20260507015928 | 55 | 66 | 0.0 | 6.0 | 0.10 | 0.27 | 0.27 | 91 | 991.7 |
| 20260507015430 | 55 | 309 | 0.0 | 0.0 | 0.12 | 0.27 | 0.27 | 91 | 991.6 |
| 20260507014925 | 55 | 309 | 0.0 | 0.0 | 0.12 | 0.27 | 0.27 | 91 | 991.6 |
| 20260507014425 | 56 | 309 | 0.0 | 0.0 | 0.11 | 0.26 | 0.27 | 91 | 991.4 |
| 20260507013924 | 56 | 309 | 0.0 | 1.0 | 0.11 | 0.26 | 0.26 | 91 | 991.3 |
| 20260507013425 | 56 | 309 | 0.0 | 1.0 | 0.12 | 0.26 | 0.26 | 91 | 991.3 |
| 20260507012425 | 56 | 309 | 0.0 | 0.0 | 0.11 | 0.25 | 0.25 | 91 | 991.2 |
| 20260507011923 | 56 | 309 | 0.0 | 2.0 | 0.10 | 0.24 | 0.24 | 91 | 991.3 |
| 20260507011421 | 57 | 309 | 0.0 | 2.0 | 0.10 | 0.24 | 0.24 | 90 | 991.1 |
| 20260507005919 | 58 | 309 | 1.0 | 4.0 | 0.03 | 0.17 | 0.19 | 91 | 991.1 |
| 20260507005419 | 59 | 309 | 1.0 | 3.0 | 0.01 | 0.15 | 0.15 | 92 | 990.9 |
| 20260507004913 | 59 | 211 | 0.0 | 0.0 | 0.01 | 0.15 | 0.15 | 92 | 990.4 |
| 20260507004407 | 59 | 211 | 0.0 | 0.0 | 0.01 | 0.15 | 0.15 | 92 | 990.3 |